SL-4 R/B

Last updated on Oct. 27, 2020, 12:02 a.m. UTC

1 39679U 14021B   20300.26504843  .00000970  00000-0  64500-4 0  9994
2 39679  51.6155 220.3139 0171973  39.2437 322.0854 15.06548844358741

Satellite is not in orbit.